TimeEST,TemperatureF,Dew PointF,Humidity,Sea Level PressureIn,VisibilityMPH,Wind Direction,Wind SpeedMPH,Gust SpeedMPH,PrecipitationIn,Events,Conditions,WindDirDegrees,DateUTC
12:54 AM,37.0,21.0,52,30.16,10.0,WNW,12.7,-,N/A,,Clear,290,2011-11-18 05:54:00
1:54 AM,37.0,19.9,50,30.19,10.0,NW,12.7,20.7,N/A,,Clear,310,2011-11-18 06:54:00
3:54 AM,36.0,18.0,48,30.25,10.0,WNW,11.5,18.4,N/A,,Clear,290,2011-11-18 08:54:00
4:54 AM,35.1,18.0,50,30.29,10.0,WNW,8.1,-,N/A,,Clear,300,2011-11-18 09:54:00
5:54 AM,34.0,18.0,52,30.32,10.0,WNW,10.4,-,N/A,,Clear,290,2011-11-18 10:54:00
6:54 AM,34.0,18.0,52,30.37,10.0,West,11.5,-,N/A,,Clear,280,2011-11-18 11:54:00
7:54 AM,36.0,19.0,50,30.40,10.0,WNW,11.5,-,N/A,,Clear,290,2011-11-18 12:54:00
8:54 AM,37.9,19.9,48,30.43,10.0,WNW,10.4,20.7,N/A,,Clear,300,2011-11-18 13:54:00
9:54 AM,39.9,21.0,47,30.43,10.0,WNW,15.0,20.7,N/A,,Clear,290,2011-11-18 14:54:00
10:54 AM,42.1,19.9,41,30.44,10.0,WNW,9.2,-,N/A,,Clear,300,2011-11-18 15:54:00
11:54 AM,44.1,21.0,40,30.42,10.0,NW,9.2,-,N/A,,Clear,310,2011-11-18 16:54:00
12:54 PM,44.1,21.0,40,30.41,10.0,NW,8.1,-,N/A,,Clear,320,2011-11-18 17:54:00
1:54 PM,45.0,19.0,36,30.41,10.0,West,11.5,-,N/A,,Clear,260,2011-11-18 18:54:00
2:54 PM,45.0,19.9,37,30.40,10.0,West,8.1,-,N/A,,Clear,270,2011-11-18 19:54:00
3:54 PM,44.1,19.0,37,30.42,10.0,West,5.8,-,N/A,,Clear,260,2011-11-18 20:54:00
4:54 PM,41.0,19.0,41,30.42,10.0,WSW,5.8,-,N/A,,Clear,250,2011-11-18 21:54:00
5:54 PM,39.2,19.4,45,30.44,10.0,West,6.9,-,N/A,,Clear,260,2011-11-18 22:54:00
6:54 PM,39.0,19.9,46,30.45,10.0,WSW,4.6,-,N/A,,Clear,240,2011-11-18 23:54:00
7:54 PM,37.9,19.9,48,30.45,10.0,Calm,Calm,-,N/A,,Clear,0,2011-11-19 00:54:00
8:54 PM,36.0,21.0,55,30.47,10.0,SSE,3.5,-,N/A,,Clear,160,2011-11-19 01:54:00
9:54 PM,34.0,23.0,64,30.48,10.0,Calm,Calm,-,N/A,,Clear,0,2011-11-19 02:54:00
10:54 PM,33.1,24.1,70,30.46,10.0,Calm,Calm,-,N/A,,Clear,0,2011-11-19 03:54:00
11:54 PM,35.1,24.1,64,30.46,10.0,Calm,Calm,-,N/A,,Clear,0,2011-11-19 04:54:00